TimeCDT,TemperatureF,Dew PointF,Humidity,Sea Level PressureIn,VisibilityMPH,Wind Direction,Wind SpeedMPH,Gust SpeedMPH,PrecipitationIn,Events,Conditions,WindDirDegrees,DateUTC
12:15 AM,42.8,42.8,100,30.32,7.0,Calm,Calm,-,N/A,,Clear,0,2013-03-15 05:15:00
12:35 AM,41.0,41.0,100,30.32,7.0,Calm,Calm,-,N/A,,Clear,0,2013-03-15 05:35:00
12:55 AM,41.0,41.0,100,30.31,7.0,Calm,Calm,-,N/A,,Clear,0,2013-03-15 05:55:00
1:15 AM,41.0,41.0,100,30.30,7.0,Calm,Calm,-,N/A,,Clear,0,2013-03-15 06:15:00
1:35 AM,39.2,39.2,100,30.30,5.0,Calm,Calm,-,N/A,,Clear,0,2013-03-15 06:35:00
1:55 AM,37.4,37.4,100,30.29,3.0,Calm,Calm,-,N/A,,Clear,0,2013-03-15 06:55:00
2:15 AM,39.2,39.2,100,30.28,2.0,Calm,Calm,-,N/A,,Clear,0,2013-03-15 07:15:00
2:35 AM,39.2,39.2,100,30.27,3.0,Calm,Calm,-,N/A,,Clear,0,2013-03-15 07:35:00
2:55 AM,37.4,37.4,100,30.27,1.0,Calm,Calm,-,N/A,Snow,Light Snow,0,2013-03-15 07:55:00
3:15 AM,37.4,37.4,100,30.27,4.0,Calm,Calm,-,N/A,,Clear,0,2013-03-15 08:15:00
3:35 AM,37.4,37.4,100,30.26,5.0,Calm,Calm,-,N/A,,Clear,0,2013-03-15 08:35:00
4:15 AM,39.2,39.2,100,30.26,2.5,Calm,Calm,-,N/A,,Clear,0,2013-03-15 09:15:00
4:35 AM,39.2,37.4,93,30.27,7.0,Calm,Calm,-,N/A,,Clear,0,2013-03-15 09:35:00
4:55 AM,37.4,37.4,100,30.28,7.0,Calm,Calm,-,N/A,,Clear,0,2013-03-15 09:55:00
5:15 AM,37.4,37.4,100,30.28,5.0,Calm,Calm,-,N/A,,Clear,0,2013-03-15 10:15:00
5:35 AM,37.4,37.4,100,30.28,1.0,Calm,Calm,-,N/A,Snow,Light Snow,0,2013-03-15 10:35:00
5:55 AM,37.4,37.4,100,30.28,1.5,Calm,Calm,-,N/A,,Mist,0,2013-03-15 10:55:00
6:15 AM,37.4,37.4,100,30.29,0.8,Calm,Calm,-,N/A,Snow,Light Snow,0,2013-03-15 11:15:00
6:35 AM,37.4,37.4,100,30.29,5.0,Calm,Calm,-,N/A,,Clear,0,2013-03-15 11:35:00
6:55 AM,37.4,37.4,100,30.29,5.0,Calm,Calm,-,N/A,,Clear,0,2013-03-15 11:55:00
7:15 AM,37.4,37.4,100,30.29,4.0,Calm,Calm,-,N/A,,Clear,0,2013-03-15 12:15:00
7:35 AM,37.4,37.4,100,30.30,3.0,Calm,Calm,-,N/A,,Clear,0,2013-03-15 12:35:00
7:55 AM,41.0,41.0,100,30.30,5.0,Calm,Calm,-,N/A,,Clear,0,2013-03-15 12:55:00
8:15 AM,44.6,44.6,100,30.30,5.0,Calm,Calm,-,N/A,,Clear,0,2013-03-15 13:15:00
8:35 AM,50.0,50.0,100,30.31,5.0,Calm,Calm,-,N/A,,Clear,0,2013-03-15 13:35:00
8:55 AM,55.4,51.8,88,30.31,7.0,West,5.8,-,N/A,,Clear,270,2013-03-15 13:55:00
9:15 AM,59.0,50.0,72,30.32,7.0,West,4.6,-,N/A,,Clear,260,2013-03-15 14:15:00
9:35 AM,59.0,48.2,67,30.33,7.0,WSW,5.8,-,N/A,,Clear,240,2013-03-15 14:35:00
10:55 AM,64.4,48.2,56,30.31,7.0,West,6.9,-,N/A,,Clear,260,2013-03-15 15:55:00
11:15 AM,64.4,46.4,52,30.31,7.0,SSW,5.8,-,N/A,,Clear,210,2013-03-15 16:15:00
11:35 AM,64.4,46.4,52,30.30,7.0,SSW,6.9,-,N/A,,Clear,210,2013-03-15 16:35:00
11:55 AM,66.2,46.4,49,30.30,7.0,SW,6.9,-,N/A,,Clear,220,2013-03-15 16:55:00
12:15 PM,66.2,46.4,49,30.29,7.0,SW,8.1,-,N/A,,Clear,220,2013-03-15 17:15:00
12:35 PM,66.2,46.4,49,30.28,7.0,SSW,8.1,-,N/A,,Clear,200,2013-03-15 17:35:00
12:55 PM,66.2,42.8,43,30.28,10.0,SW,12.7,-,N/A,,Clear,220,2013-03-15 17:55:00
1:15 PM,66.2,44.6,46,30.27,7.0,SW,9.2,-,N/A,,Clear,220,2013-03-15 18:15:00
1:35 PM,66.2,46.4,49,30.26,7.0,SW,10.4,17.3,N/A,,Clear,220,2013-03-15 18:35:00
1:55 PM,68.0,42.8,40,30.25,7.0,SW,11.5,17.3,N/A,,Clear,220,2013-03-15 18:55:00
2:15 PM,68.0,42.8,40,30.24,10.0,SW,10.4,-,N/A,,Clear,220,2013-03-15 19:15:00
2:35 PM,66.2,44.6,46,30.23,7.0,SW,8.1,-,N/A,,Clear,220,2013-03-15 19:35:00
2:55 PM,66.2,46.4,49,30.21,7.0,SW,8.1,16.1,N/A,,Clear,220,2013-03-15 19:55:00
3:15 PM,66.2,46.4,49,30.20,7.0,SW,8.1,-,N/A,,Clear,220,2013-03-15 20:15:00
3:35 PM,66.2,48.2,52,30.20,7.0,SSW,9.2,-,N/A,,Clear,210,2013-03-15 20:35:00
3:55 PM,66.2,46.4,49,30.19,7.0,SW,10.4,-,N/A,,Clear,220,2013-03-15 20:55:00
4:15 PM,66.2,46.4,49,30.18,10.0,SSW,8.1,-,N/A,,Clear,200,2013-03-15 21:15:00
4:35 PM,66.2,44.6,46,30.18,7.0,SW,9.2,-,N/A,,Clear,230,2013-03-15 21:35:00
4:55 PM,66.2,44.6,46,30.18,7.0,SW,9.2,16.1,N/A,,Clear,220,2013-03-15 21:55:00
5:15 PM,64.4,44.6,49,30.18,7.0,SSW,9.2,16.1,N/A,,Clear,210,2013-03-15 22:15:00
5:35 PM,64.4,46.4,52,30.18,7.0,SW,5.8,-,N/A,,Clear,220,2013-03-15 22:35:00
5:55 PM,64.4,46.4,52,30.18,5.0,SSW,6.9,-,N/A,,Haze,210,2013-03-15 22:55:00
6:15 PM,64.4,46.4,52,30.18,7.0,SSW,4.6,-,N/A,,Clear,200,2013-03-15 23:15:00
6:35 PM,62.6,48.2,59,30.18,7.0,SSW,3.5,-,N/A,,Clear,200,2013-03-15 23:35:00
6:55 PM,60.8,48.2,63,30.18,7.0,Calm,Calm,-,N/A,,Clear,0,2013-03-15 23:55:00
7:15 PM,60.8,50.0,68,30.18,7.0,Calm,Calm,-,N/A,,Clear,0,2013-03-16 00:15:00
7:35 PM,57.2,50.0,77,30.19,7.0,Calm,Calm,-,N/A,,Clear,0,2013-03-16 00:35:00
7:55 PM,53.6,50.0,88,30.19,7.0,Calm,Calm,-,N/A,,Clear,0,2013-03-16 00:55:00
8:15 PM,51.8,50.0,94,30.19,7.0,Calm,Calm,-,N/A,,Clear,0,2013-03-16 01:15:00
8:35 PM,50.0,48.2,94,30.19,7.0,Calm,Calm,-,N/A,,Clear,0,2013-03-16 01:35:00
8:55 PM,48.2,46.4,93,30.18,10.0,Calm,Calm,-,N/A,,Clear,0,2013-03-16 01:55:00
9:15 PM,48.2,46.4,93,30.19,7.0,Calm,Calm,-,N/A,,Clear,0,2013-03-16 02:15:00
9:35 PM,53.6,51.8,94,30.19,10.0,SW,3.5,-,N/A,,Clear,220,2013-03-16 02:35:00
9:55 PM,59.0,53.6,82,30.19,10.0,SSW,3.5,-,N/A,,Clear,210,2013-03-16 02:55:00
10:15 PM,59.0,53.6,82,30.19,10.0,SSW,4.6,-,N/A,,Clear,210,2013-03-16 03:15:00
10:35 PM,59.0,53.6,82,30.18,7.0,SSW,3.5,-,N/A,,Clear,210,2013-03-16 03:35:00
10:55 PM,59.0,53.6,82,30.18,7.0,SSW,3.5,-,N/A,,Clear,210,2013-03-16 03:55:00
11:15 PM,60.8,53.6,77,30.18,10.0,SSW,3.5,-,N/A,,Clear,200,2013-03-16 04:15:00
11:35 PM,60.8,53.6,77,30.17,7.0,SSW,3.5,-,N/A,,Clear,200,2013-03-16 04:35:00
11:55 PM,60.8,53.6,77,30.16,7.0,South,3.5,-,N/A,,Clear,190,2013-03-16 04:55:00